User: anonymous   Login
Location: Gairloch Mountain Observatory
(46.1383°N, 60.9640°W)
Time: 03:11:41
(UTC-03:00)
Language:

CENTAUR R/B - Orbit

View from above orbital plane
View from above orbital plane
View from above satellite
View from above satellite

Ground track
Ground track

The orbit data is extracted from the following two-line orbital elements,

1 26906U 01040B   14302.76190954 0.00000200  00000-0  27794-3 0    06
2 26906  63.4645 276.1311 0269000 345.0900  14.9100 13.43924252    02
Epoch (UTC): 29 October 2014 18:17:08
Eccentricity: 0.0269000
inclination: 63.4645°
perigee height: 893 km
apogee height: 1296 km
right ascension of ascending node: 276.1311°
argument of perigee: 345.0900°
revolutions per day: 13.43924252
mean anomaly at epoch: 14.9100°
orbit number at epoch: 0

The dashed part of the orbit path shows where the satellite is in the earth's shadow,  

DLR